Location: Bun Machan
(52.1403°N, 7.3744°W)
Time: 18:05:58
(UTC+00:00)

Gbstr 26 Del rocket - Pass Details

Date: 14 July 2020
Orbit: 492 x 1264 km, 51.8° (Epoch: 11 August)

Event Time Altitude Azimuth Distance (km) Brightness Sun altitude
Rises 01:35:12 0° 278° (W) 2,601 6.2 -15.1°
Reaches altitude 10° 01:37:16 10° 277° (W) 1,753 5.3 -15.0°
Maximum altitude 01:41:10 76° 192° (SSW) 587 2.7 -14.8°
Drops below altitude 10° 01:45:43 10° 107° (ESE) 2,034 5.7 -14.7°
Sets 01:48:16 0° 106° (ESE) 3,064 6.6 -14.5°
